Ketchikan, AK

3:45 PM AKST on December 16, 2017 (GMT -0900)
Ketchikan International

Weather History for PAKT - April, 2013

Change the Weather History Date:

Friday, April 26, 2013

  Actual Average Record
Temperature  
Mean Temperature 44 °F -  
Max Temperature 48 °F 52 °F 72 °F (1989)
Min Temperature 39 °F 38 °F 30 °F (1954)
Degree Days  
Heating Degree Days 22    
Moisture  
Dew Point 44 °F    
Average Humidity 95    
Maximum Humidity 100    
Minimum Humidity 74    
Precipitation  
Precipitation 1.22 in - - ()
Sea Level Pressure  
Sea Level Pressure 29.68 in    
Wind  
Wind Speed 19 mph (SE)    
Max Wind Speed 26 mph    
Max Gust Speed 43 mph    
Visibility 7 miles    
Events Rain    
Averages and records for this station are not official NWS values.
T = Trace of Precipitation, MM = Missing Value Source: NWS Daily Summary

Daily Weather History Graph

Daily Weather History Graph

Search for Another Location

Airport or City:

Trip Planner

Search our weather history database for the weather conditions in past years. The results will help you decide how hot, cold, wet, or windy it might be!

Date:

Astronomy

Apr. 26, 2013 Rise Set
Actual Time 5:15 AM AKDT 8:14 PM AKDT
Civil Twilight 4:33 AM AKDT 8:57 PM AKDT
Nautical Twilight 3:37 AM AKDT 9:53 PM AKDT
Astronomical Twilight 2:22 AM AKDT 11:11 PM AKDT
Moon 10:01 PM AKDT (4/26) 5:38 AM AKDT (4/26)
Length of Visible Light 16h 23m
Length of Day
14h 59m
Full, 99% of the Moon is Illuminated
Apr 26
Full
May 2
Last Quarter
May 9
New
May 17
First Quarter
May 24
Full

Hourly Weather History & Observations

Time (AKDT) Temp. Windchill Dew Point Humidity Pressure Visibility Wind Dir Wind Speed Gust Speed Precip Events Conditions
12:04 AM 44.6 °F 35.5 °F 44.6 °F 100% 29.69 in 3.0 mi SE 25.3 mph 42.6 mph 0.04 in Rain Rain
12:16 AM 44.6 °F 36.1 °F 44.6 °F 100% 29.69 in 4.0 mi SE 21.9 mph 35.7 mph 0.06 in Rain Light Rain
12:34 AM 44.6 °F 36.4 °F 44.6 °F 100% 29.68 in 2.0 mi SE 20.7 mph 32.2 mph 0.13 in Rain Rain
12:53 AM 44.1 °F 34.8 °F 44.1 °F 100% 29.68 in 4.0 mi SE 25.3 mph 35.7 mph 0.19 in Rain Rain
1:53 AM 45.0 °F 36.0 °F 45.0 °F 100% 29.68 in 4.0 mi SE 25.3 mph 39.1 mph 0.21 in Rain Rain
2:49 AM 44.6 °F 35.9 °F 44.6 °F 100% 29.67 in 3.0 mi SE 23.0 mph 35.7 mph 0.10 in Rain Rain
2:53 AM 45.0 °F 35.8 °F 45.0 °F 100% 29.68 in 2.5 mi SE 26.5 mph 38.0 mph 0.11 in Rain Rain
3:02 AM 44.6 °F 35.7 °F 44.6 °F 100% 29.67 in 3.0 mi SE 24.2 mph 38.0 mph 0.00 in Rain Light Rain
3:22 AM 44.6 °F 35.9 °F 44.6 °F 100% 29.67 in 3.0 mi SE 23.0 mph 29.9 mph 0.03 in Rain Light Rain
3:53 AM 45.0 °F 37.1 °F 45.0 °F 100% 29.68 in 5.0 mi SE 19.6 mph - 0.04 in Rain Light Rain
4:53 AM 46.0 °F 39.3 °F 46.0 °F 100% 29.67 in 7.0 mi SE 16.1 mph 27.6 mph 0.05 in Rain Light Rain
5:49 AM 46.4 °F 40.4 °F 46.4 °F 100% 29.68 in 2.0 mi SE 13.8 mph - 0.08 in Rain Rain
5:53 AM 46.0 °F 40.2 °F 46.0 °F 100% 29.68 in 2.5 mi ESE 12.7 mph - 0.09 in Rain Light Rain
6:01 AM 46.4 °F 40.1 °F 46.4 °F 100% 29.67 in 7.0 mi SE 15.0 mph - 0.00 in Rain Light Rain
6:53 AM 46.4 °F 40.1 °F 46.4 °F 100% 29.68 in 10.0 mi SE 15.0 mph 19.6 mph N/A Rain Light Rain
7:53 AM 46.9 °F - 46.9 °F 100% 29.70 in 10.0 mi SE 15.0 mph 25.3 mph 0.00 in   Overcast
8:53 AM 46.0 °F 40.2 °F 44.1 °F 93% 29.71 in 6.0 mi SE 12.7 mph 19.6 mph 0.01 in Rain Light Rain
9:53 AM 48.0 °F - 43.0 °F 83% 29.72 in 10.0 mi SE 18.4 mph 27.6 mph 0.00 in Rain Light Rain
10:53 AM 46.9 °F - 45.0 °F 93% 29.74 in 9.0 mi SE 12.7 mph 23.0 mph 0.01 in Rain Light Rain
11:53 AM 46.9 °F - 46.0 °F 97% 29.75 in 10.0 mi SE 16.1 mph 27.6 mph 0.04 in Rain Light Rain
12:53 PM 48.9 °F - 45.0 °F 86% 29.75 in 10.0 mi SE 13.8 mph 25.3 mph 0.02 in Rain Light Rain
1:53 PM 48.0 °F - 46.9 °F 96% 29.75 in 10.0 mi SE 16.1 mph 29.9 mph 0.05 in Rain Light Rain
2:53 PM 46.0 °F 39.9 °F 42.1 °F 86% 29.77 in 10.0 mi SE 13.8 mph 21.9 mph 0.03 in Rain Light Rain
3:53 PM 46.9 °F - 41.0 °F 80% 29.73 in 10.0 mi SSE 16.1 mph 27.6 mph 0.00 in Rain Light Rain
4:53 PM 46.0 °F 40.6 °F 41.0 °F 83% 29.71 in 10.0 mi SE 11.5 mph 24.2 mph 0.02 in   Overcast
5:53 PM 46.9 °F - 39.0 °F 74% 29.67 in 10.0 mi SE 16.1 mph 27.6 mph 0.00 in   Overcast
6:53 PM 45.0 °F 37.1 °F 43.0 °F 93% 29.63 in 10.0 mi SE 19.6 mph 28.8 mph 0.00 in   Overcast
7:53 PM 44.1 °F 37.1 °F 42.1 °F 93% 29.60 in 5.0 mi SE 15.0 mph 24.2 mph 0.03 in Rain Light Rain
8:53 PM 42.1 °F 38.4 °F 39.9 °F 92% 29.59 in 7.0 mi Variable 5.8 mph - 0.11 in Rain Light Rain
9:53 PM 41.0 °F 34.7 °F 41.0 °F 100% 29.58 in 8.0 mi ESE 10.4 mph - 0.10 in Rain Light Rain
10:53 PM 41.0 °F 38.0 °F 39.0 °F 93% 29.58 in 6.0 mi SSE 4.6 mph - 0.08 in Rain Light Rain
11:22 PM 39.2 °F 35.9 °F 39.2 °F 100% 29.59 in 10.0 mi North 4.6 mph - 0.03 in Rain Light Rain
11:53 PM 41.0 °F 39.0 °F 36.0 °F 82% 29.60 in 10.0 mi Variable 3.5 mph - 0.03 in Rain Light Rain